[[{"header":{"parameterUnit":"m.s-1","parameterCategory":1,"la1":30.2992,"la2":30.254,"lo1":-89.0895,"lo2":-89.0443,"dy":0.0025,"dx":0.0025,"nx":19,"ny":19,"refTime":"2026-03-26T21:00:00:Z","depth":0,"parameterNumber":2,"parameterNumberName":"U-component_of_WINDS"},"data":[0,0,0,0.7192,0.7193,0.7223,0.7223,0.7266,0.7267,0,0,0,0,0,0,0,0,0,0,0,0.7187,0.7187,0.7192,0.7193,0.7223,0.7223,0.7266,0.7267,0,0,0,0,0,0,0,0,0,0,0,0.7187,0.7187,0.7188,0.7193,0.7223,0.7223,0.7266,0.7242,0,0,0,0,0,0,0,0,0,0,0.7211,0.721,0.7187,0.7188,0.7193,0.7223,0.7223,0.724,0.7243,0.7255,0,0.7267,0,0.7268,0.727,0.727,0,0,0,0.719,0.7208,0.7213,0.7188,0.7194,0.7223,0.7209,0.7242,0.7245,0.7258,0.7267,0.7269,0.7268,0.727,0.7271,0.7348,0.7349,0,0,0.7189,0.7194,0.7211,0.7215,0.7212,0.7208,0.721,0.7244,0.7253,0.7267,0.727,0.7269,0.7271,0.7271,0.7348,0.7349,0,0,0,0.7186,0.7193,0.7197,0.7213,0.7219,0.7209,0.7211,0.7252,0.7253,0.727,0.7269,0.7271,0.7271,0.7347,0.7348,0.7378,0,0,0,0.7185,0.7191,0.7197,0.72,0.7218,0.7236,0.7219,0.725,0.7254,0.7269,0.7271,0.7272,0.7347,0.7348,0.7376,0.7391,0,0,0,0.7184,0.7191,0.7197,0.72,0.7214,0.7235,0.7238,0.7251,0.7254,0.727,0.7272,0.7346,0.7348,0.7374,0.7388,0.7413,0,0,0,0.7184,0.7223,0.7197,0.724,0.7213,0.7254,0.7238,0.7267,0.7285,0.7271,0.7347,0.7348,0.7374,0.7386,0.7411,0.7434,0.7445,0,0,0.7236,0.7229,0.7254,0.7232,0.7278,0.7249,0.7299,0.731,0.7306,0.7334,0.7336,0.7377,0.7388,0.7412,0.7502,0.751,0,0,0,0.7272,0.729,0.7301,0.7319,0.7328,0.7337,0.7339,0.7343,0.7367,0.7322,0.7392,0.7399,0.7413,0.7424,0.7431,0.7442,0.7353,0.7353,0.7353,0.7353,0.7347,0.7387,0.7384,0.7401,0.7403,0.7416,0.7421,0.7409,0.7426,0.7434,0.749,0.7502,0.7508,0.752,0.7446,0.7447,0.7447,0.7447,0.7428,0.7452,0.7436,0.7469,0.7461,0.7489,0.7492,0.7483,0.7507,0.7483,0.7495,0.7469,0.7517,0.7527,0.7449,0.7449,0.7448,0.7448,0.7448,0.748,0.749,0.7495,0.7518,0.7537,0.7533,0.7557,0.7549,0.7542,0.7554,0.7561,0.7561,0.7559,0.7558,0.7558,0.7558,0.7559,0.7559,0.7559,0.7532,0.7536,0.7557,0.757,0.758,0.7592,0.7594,0.7603,0.7611,0.7603,0.7603,0.759,0.7523,0.7507,0.7562,0.7561,0.7561,0.7561,0.756,0.7609,0.759,0.7623,0.7633,0.7647,0.7666,0.7657,0.7676,0.7682,0.7694,0.7678,0.763,0.7622,0.7617,0.7603,0.7679,0.7679,0.7679,0.7679,0.7652,0.7648,0.7679,0.7696,0.7711,0.7705,0.7741,0.7743,0.7742,0.7745,0.7733,0.7714,0.7709,0.7704,0.7697,0.7683,0.7779,0.7779,0.7779,0.7699,0.7696,0.7728,0.7728,0.7738,0.7747,0.7781,0.78,0.7795,0.7783,0.7748,0.7744,0.7713,0.7703,0.769,0.7679,0.7654,0,0]},{"header":{"parameterUnit":"m.s-1","parameterCategory":1,"la1":30.2992,"la2":30.254,"lo1":-89.0895,"lo2":-89.0443,"dy":0.0025,"dx":0.0025,"nx":19,"ny":19,"refTime":"2026-03-26T21:00:00:Z","depth":0,"parameterNumber":3,"parameterNumberName":"V-component_of_WINDS"},"data":[0,0,0,4.1889,4.1891,4.1944,4.1944,4.2026,4.2026,0,0,0,0,0,0,0,0,0,0,0,4.1883,4.1884,4.1889,4.1891,4.1944,4.1944,4.2025,4.2026,0,0,0,0,0,0,0,0,0,0,0,4.1882,4.1883,4.1885,4.1891,4.1944,4.1945,4.2025,4.198,0,0,0,0,0,0,0,0,0,0,4.1925,4.1929,4.1883,4.1885,4.1891,4.1944,4.1945,4.1977,4.1983,4.2007,0,4.2033,0,4.2031,4.2033,4.2033,0,0,0,4.1883,4.1925,4.1931,4.1885,4.1892,4.1944,4.1918,4.198,4.1986,4.2014,4.2034,4.2037,4.2033,4.2033,4.2034,4.2206,4.2207,0,0,4.188,4.1897,4.1927,4.1935,4.193,4.1916,4.192,4.1984,4.2006,4.2034,4.2038,4.2034,4.2034,4.2035,4.2204,4.2206,0,0,0,4.1877,4.1895,4.19,4.1932,4.1941,4.1918,4.1922,4.2003,4.2003,4.2039,4.2035,4.2035,4.2036,4.2203,4.2205,4.228,0,0,0,4.1875,4.1893,4.1899,4.1909,4.194,4.1973,4.194,4.1998,4.2005,4.2035,4.2035,4.2037,4.2202,4.2204,4.2275,4.2313,0,0,0,4.1876,4.1893,4.1905,4.191,4.1934,4.1972,4.1975,4.1999,4.2003,4.2033,4.2037,4.2201,4.2204,4.2271,4.2305,4.2364,0,0,0,4.1882,4.1969,4.1906,4.2002,4.1934,4.2018,4.1975,4.2036,4.2071,4.2035,4.2202,4.2205,4.227,4.2301,4.2359,4.2416,4.2442,0,0,4.2001,4.1984,4.2039,4.1984,4.2084,4.2009,4.2119,4.2134,4.212,4.2177,4.2181,4.2277,4.2305,4.2363,4.2576,4.2597,0,0,0,4.2082,4.2122,4.2145,4.218,4.2195,4.221,4.2207,4.2212,4.226,4.2154,4.2312,4.2329,4.2362,4.2388,4.2406,4.2433,4.2218,4.2217,4.2217,4.2276,4.2255,4.2345,4.2331,4.2365,4.2361,4.2387,4.2393,4.236,4.2398,4.2416,4.2548,4.258,4.2593,4.2622,4.2443,4.2444,4.2444,4.2444,4.2449,4.2503,4.2459,4.2531,4.2508,4.2567,4.2566,4.2541,4.2592,4.2533,4.2561,4.2499,4.2616,4.264,4.245,4.2449,4.2448,4.2447,4.2447,4.2574,4.2597,4.2603,4.2652,4.2692,4.2673,4.2725,4.2701,4.2679,4.2707,4.2723,4.2722,4.2718,4.2716,4.2717,4.2717,4.2717,4.2718,4.2718,4.2702,4.2707,4.2754,4.2778,4.2798,4.282,4.2817,4.2835,4.2849,4.2828,4.2828,4.2792,4.2631,4.2591,4.2725,4.2724,4.2723,4.2722,4.2722,4.2887,4.2842,4.2916,4.2936,4.2961,4.3002,4.2972,4.3011,4.3022,4.3048,4.3006,4.2891,4.2871,4.2857,4.2825,4.301,4.301,4.301,4.301,4.2994,4.2982,4.3052,4.3086,4.3115,4.3096,4.3178,4.3176,4.3167,4.3172,4.3142,4.3096,4.3083,4.3071,4.3052,4.3021,4.3253,4.3253,4.3253,4.3107,4.3097,4.3173,4.3165,4.3183,4.3199,4.3276,4.3315,4.3294,4.3263,4.3176,4.3166,4.3092,4.3069,4.3036,4.3008,4.295,0,0]}]]